Location: Capelle
(50.3413°N, 1.9974°E)
Time: 20:21:43
(UTC+00:00)

Cosmos 1869 Rocket - Pass Details

Date: 12 January 2026
Orbit: 597 x 626 km, 82.5° (Epoch: 15 February)

Event Time Altitude Azimuth Distance (km) Brightness Sun altitude
Rises 18:12:47 0° 354° (N) 2,915 7.0 -18.3°
Reaches altitude 10° 18:15:07 10° 0° (N) 2,000 6.0 -18.7°
Maximum altitude 18:19:23 46° 74° (ENE) 836 3.7 -19.4°
Enters shadow 18:19:29 46° 79° (E) 837 3.7 -19.4°
